1521586800.06,14139,10.13,72242.8,-17.25,-18.21,-18.17,0,*6A
1521586801.3,14140,10.13,72236.5,-17.25,-18.21,-18.17,0,*64
1521586802.53,14141,10.13,72264.8,-17.25,-18.21,-18.17,0,*65
1521586803.77,14142,10.13,72250.5,-17.25,-18.21,-18.21,0,*63
1521586805.01,14143,10.13,72256.3,-17.25,-18.21,-18.21,0,*62
1521586806.24,14144,10.13,72248.3,-17.25,-18.17,-18.21,0,*60
1521586807.51,14145,10.13,72254.0,-17.25,-18.17,-18.31,0,*60
1521586808.72,14146,10.13,72240.0,-17.23,-18.17,-18.21,0,*64
1521586809.96,14147,10.13,72240.5,-17.25,-18.17,-18.17,0,*66
1521586811.19,14148,10.13,72244.3,-17.25,-18.21,-18.17,0,*6C
1521586812.43,14149,10.13,72246.0,-17.25,-18.21,-18.17,0,*6D
1521586813.66,14150,10.13,72242.8,-17.25,-18.21,-18.21,0,*60
1521586814.9,14151,10.13,72234.8,-17.25,-18.21,-18.21,0,*61
1521586816.14,14152,10.13,72226.5,-17.25,-18.21,-18.21,0,*62
1521586817.35,14153,10.13,72224.5,-17.27,-18.21,-18.21,0,*61
1521586818.57,14154,10.13,72226.8,-17.23,-18.21,-18.21,0,*62
1521586819.81,14155,10.13,72232.8,-17.23,-18.31,-18.21,0,*62
1521586821.05,14156,10.13,72232.0,-17.25,-18.17,-18.21,0,*63
1521586822.28,14157,10.13,72242.5,-17.25,-18.17,-18.17,0,*67
1521586823.52,14158,10.13,72244.5,-17.25,-18.21,-18.17,0,*6D
1521586824.75,14159,10.13,72250.5,-17.25,-18.21,-18.17,0,*6C
1521586825.99,14160,10.13,72250.8,-17.25,-18.21,-18.21,0,*63
1521586827.22,14161,10.13,72246.5,-17.25,-18.21,-18.21,0,*62
1521586828.46,14162,10.13,72240.5,-17.25,-18.21,-18.21,0,*61
1521586829.67,14163,10.13,72234.8,-17.23,-18.21,-18.21,0,*66
1521586830.91,14164,10.13,72236.0,-17.25,-18.21,-18.21,0,*67
1521586832.15,14165,10.13,72240.5,-17.25,-18.21,-18.21,0,*66
1521586833.37,14166,10.13,72260.5,-17.27,-18.21,-18.21,0,*67
1521586834.6,14167,10.13,72256.8,-17.25,-18.21,-18.21,0,*64
1521586835.84,14168,10.13,72256.0,-17.25,-18.21,-18.21,0,*6B
1521586837.09,14169,10.13,72252.0,-17.27,-18.21,-18.31,0,*69
1521586838.3,14170,10.13,72252.0,-17.27,-18.21,-18.21,0,*60
1521586839.54,14171,10.13,72246.3,-17.29,-18.25,-18.25,0,*6F
1521586840.75,14172,10.13,72248.3,-17.27,-18.21,-18.21,0,*62
1521586842.0,14173,10.13,72248.5,-17.23,-18.31,-18.21,0,*66
1521586843.21,14174,10.13,72244.8,-17.27,-18.21,-18.17,0,*61
1521586844.42,14175,10.13,72254.5,-17.27,-18.21,-18.17,0,*60
1521586845.66,14176,10.13,72250.0,-17.29,-18.25,-18.21,0,*6C
1521586846.9,14177,10.13,72246.8,-17.29,-18.25,-18.21,0,*6D
1521586848.11,14178,10.13,72238.0,-17.27,-18.21,-18.17,0,*6D
1521586849.35,14179,10.13,72244.5,-17.25,-18.21,-18.21,0,*6B
1521586850.59,14180,10.13,72260.8,-17.25,-18.21,-18.21,0,*6D
1521586851.83,14181,10.13,72240.3,-17.25,-18.21,-18.21,0,*6C
1521586853.06,14182,10.13,72250.8,-17.25,-18.21,-18.21,0,*6F
1521586854.3,14183,10.13,72228.3,-17.25,-18.21,-18.21,0,*6E
1521586855.52,14184,10.13,72216.5,-17.27,-18.21,-18.21,0,*6B
1521586856.75,14185,10.13,72212.5,-17.25,-18.17,-18.21,0,*6D
1521586857.97,14186,10.13,72242.8,-17.23,-18.17,-18.21,0,*68
1521586859.23,14187,10.13,72226.8,-17.25,-18.31,-18.21,0,*6B
1521586860.45,14188,10.13,72224.5,-17.27,-18.21,-18.21,0,*67
1521586861.69,14189,10.13,72226.0,-17.25,-18.21,-18.21,0,*64
1521586862.93,14190,10.13,72230.0,-17.27,-18.21,-18.31,0,*6F
1521586864.15,14191,10.13,72238.0,-17.27,-18.21,-18.21,0,*6F
1521586865.39,14192,10.13,72234.3,-17.25,-18.21,-18.21,0,*6E
1521586866.63,14193,10.13,72226.3,-17.25,-18.21,-18.21,0,*6F
1521586867.84,14194,10.13,72246.8,-17.27,-18.21,-18.21,0,*6A
1521586869.05,14195,10.13,72246.8,-17.27,-18.21,-18.17,0,*6E
1521586870.27,14196,10.13,72232.3,-17.27,-18.21,-18.21,0,*68
1521586871.51,14197,10.13,72240.5,-17.29,-18.25,-18.21,0,*63
1521586872.73,14198,10.13,72246.8,-17.27,-18.21,-18.21,0,*66
1521586873.94,14199,10.13,72256.8,-17.27,-18.21,-18.17,0,*62
1521586875.15,14200,10.13,72240.8,-17.27,-18.21,-18.17,0,*61
1521586876.39,14201,10.13,72244.3,-17.25,-18.21,-18.17,0,*62
1521586877.62,14202,10.13,72250.5,-17.25,-18.21,-18.17,0,*61
1521586878.84,14203,10.13,72244.0,-17.27,-18.21,-18.17,0,*62
1521586880.07,14204,10.13,72244.0,-17.29,-18.25,-18.25,0,*6E
1521586881.29,14205,10.13,72250.5,-17.27,-18.21,-18.21,0,*61
1521586882.52,14206,10.13,72248.5,-17.29,-18.25,-18.25,0,*6C
1521586883.76,14207,10.13,72252.5,-17.25,-18.21,-18.21,0,*61
1521586884.99,14208,10.13,72252.8,-17.25,-18.21,-18.21,0,*6E
1521586886.23,14209,10.13,72248.5,-17.25,-18.21,-18.21,0,*6F
1521586887.45,14210,10.13,72258.0,-17.27,-18.21,-18.21,0,*65
1521586888.66,14211,10.13,72250.5,-17.27,-18.21,-18.21,0,*64
1521586889.88,14212,10.13,72252.8,-17.27,-18.21,-18.21,0,*67
1521586891.1,14213,10.13,72252.5,-17.27,-18.21,-18.21,0,*66
1521586892.31,14214,10.13,72254.8,-17.27,-18.21,-18.17,0,*64
1521586893.52,14215,10.13,72256.5,-17.27,-18.21,-18.17,0,*65
1521586894.76,14216,10.13,72258.3,-17.29,-18.25,-18.25,0,*6D
1521586895.99,14217,10.13,72256.0,-17.29,-18.25,-18.25,0,*6C
1521586897.22,14218,10.13,72258.0,-17.29,-18.25,-18.25,0,*63
1521586898.44,14219,10.13,72260.8,-17.27,-18.21,-18.17,0,*69
1521586899.65,14220,10.13,72264.8,-17.27,-18.21,-18.17,0,*63
1521586900.89,14221,10.13,72252.3,-17.29,-18.25,-18.21,0,*6D
1521586902.1,14222,10.13,72254.0,-17.27,-18.21,-18.17,0,*61
1521586903.31,14223,10.13,72254.3,-17.27,-18.21,-18.17,0,*60
1521586904.53,14224,10.13,72264.0,-17.27,-18.17,-18.17,0,*62
1521586905.77,14225,10.13,72254.8,-17.29,-18.25,-18.21,0,*69
1521586907.0,14226,10.13,72262.5,-17.29,-18.21,-18.25,0,*6A
1521586908.22,14227,10.13,72258.8,-17.27,-18.17,-18.21,0,*64
1521586909.43,14228,10.13,72258.8,-17.27,-18.17,-18.21,0,*6B
1521586910.67,14229,10.13,72254.8,-17.29,-18.21,-18.25,0,*65
1521586911.9,14230,10.13,72266.3,-17.29,-18.25,-18.25,0,*69
1521586913.13,14231,10.13,72262.0,-17.25,-18.21,-18.17,0,*61
1521586914.37,14232,10.13,72262.5,-17.29,-18.25,-18.21,0,*6F
1521586915.62,14233,10.13,72258.0,-17.27,-18.31,-18.17,0,*60
1521586916.83,14234,10.13,72262.5,-17.27,-18.21,-18.17,0,*66
1521586918.04,14235,10.13,72260.8,-17.27,-18.21,-18.17,0,*67
1521586919.26,14236,10.13,72268.8,-17.27,-18.21,-18.17,0,*64
1521586920.47,14237,10.13,72266.0,-17.27,-18.21,-18.17,0,*65
1521586921.71,14238,10.13,72262.3,-17.29,-18.25,-18.21,0,*65
1521586922.93,14239,10.13,72266.0,-17.27,-18.21,-18.21,0,*6E
1521586924.17,14240,10.13,72264.0,-17.29,-18.25,-18.21,0,*6A
1521586925.4,14241,10.13,72258.5,-17.29,-18.25,-18.21,0,*6B
1521586926.62,14242,10.13,72266.3,-17.27,-18.21,-18.17,0,*67
1521586927.83,14243,10.13,72254.8,-17.27,-18.21,-18.17,0,*66
1521586929.07,14244,10.13,72254.3,-17.29,-18.25,-18.21,0,*6E
1521586930.31,14245,10.13,72244.0,-17.29,-18.25,-18.21,0,*6F
1521586931.55,14246,10.13,72254.0,-17.29,-18.25,-18.21,0,*6C
1521586932.77,14247,10.13,72254.5,-17.27,-18.21,-18.11,0,*64
1521586933.99,14248,10.13,72242.3,-17.27,-18.21,-18.21,0,*68
1521586935.2,14249,10.13,72246.3,-17.27,-18.21,-18.21,0,*69
1521586936.42,14250,10.13,72246.0,-17.27,-18.21,-18.21,0,*61
1521586937.69,14251,10.13,72250.3,-17.29,-18.25,-18.31,0,*6B
1521586938.9,14252,10.13,72246.8,-17.27,-18.21,-18.17,0,*66
1521586940.14,14253,10.13,72246.8,-17.29,-18.25,-18.21,0,*68
1521586941.35,14254,10.13,72248.5,-17.27,-18.21,-18.17,0,*60
1521586942.59,14255,10.13,72262.0,-17.29,-18.25,-18.21,0,*6E
1521586943.83,14256,10.13,72258.5,-17.29,-18.25,-18.21,0,*6D
1521586945.06,14257,10.13,72252.0,-17.29,-18.25,-18.25,0,*68
1521586946.3,14258,10.13,72250.5,-17.29,-18.25,-18.25,0,*67
1521586947.53,14259,10.13,72256.0,-17.29,-18.25,-18.25,0,*66
1521586948.75,14260,10.13,72254.5,-17.27,-18.21,-18.21,0,*62
1521586949.98,14261,10.13,72248.8,-17.29,-18.25,-18.25,0,*6D
1521586951.19,14262,10.13,72236.3,-17.27,-18.21,-18.21,0,*60
1521586952.43,14263,10.13,72232.3,-17.29,-18.25,-18.25,0,*6F
1521586953.64,14264,10.13,72234.0,-17.27,-18.21,-18.21,0,*66
1521586954.9,14265,10.13,72232.5,-17.29,-18.35,-18.25,0,*68
1521586956.14,14266,10.13,72246.3,-17.29,-18.25,-18.25,0,*6A
1521586957.35,14267,10.13,72246.0,-17.27,-18.21,-18.21,0,*65
1521586958.59,14268,10.13,72242.5,-17.29,-18.25,-18.21,0,*60
1521586959.86,14269,10.13,72250.8,-17.29,-18.35,-18.21,0,*60
1521586961.12,14270,10.13,72254.8,-17.29,-18.35,-18.21,0,*68
1521586962.36,14271,10.13,72252.3,-17.29,-18.25,-18.21,0,*68
1521586963.58,14272,10.13,72234.8,-17.27,-18.25,-18.21,0,*65
1521586964.8,14273,10.13,72228.0,-17.27,-18.21,-18.21,0,*60
1521586966.03,14274,10.13,72242.8,-17.29,-18.25,-18.25,0,*69
1521586967.26,14275,10.13,72226.5,-17.29,-18.25,-18.25,0,*68
1521586968.49,14276,10.13,72234.0,-17.29,-18.25,-18.25,0,*6B
1521586969.73,14277,10.13,72238.5,-17.29,-18.25,-18.25,0,*6A
1521586970.96,14278,10.13,72230.8,-17.29,-18.25,-18.25,0,*65
1521586972.19,14279,10.13,72246.3,-17.29,-18.25,-18.25,0,*64
1521586973.4,14280,10.13,72244.8,-17.27,-18.25,-18.25,0,*6C
1521586974.62,14281,10.13,72246.5,-17.27,-18.21,-18.21,0,*6D
1521586975.83,14282,10.13,72246.5,-17.27,-18.21,-18.21,0,*6E
1521586977.07,14283,10.13,72250.5,-17.29,-18.25,-18.25,0,*61
1521586978.3,14284,10.13,72246.3,-17.29,-18.21,-18.25,0,*62
1521586979.52,14285,10.13,72228.5,-17.27,-18.17,-18.21,0,*6C
1521586980.73,14286,10.13,72246.5,-17.27,-18.17,-18.17,0,*6A
1521586981.97,14287,10.13,72252.8,-17.29,-18.21,-18.21,0,*65
1521586983.18,14288,10.13,72232.0,-17.27,-18.17,-18.17,0,*64
1521586984.42,14289,10.13,72240.8,-17.29,-18.25,-18.21,0,*6F
1521586985.69,14290,10.13,72244.0,-17.29,-18.35,-18.21,0,*66
1521586986.93,14291,10.13,72244.0,-17.29,-18.25,-18.21,0,*66
1521586988.16,14292,10.13,72230.3,-17.29,-18.25,-18.17,0,*60
1521586989.43,14293,10.13,72234.0,-17.29,-18.35,-18.21,0,*65
1521586990.67,14294,10.13,72232.8,-17.29,-18.25,-18.21,0,*63
1521586991.91,14295,10.13,72220.5,-17.29,-18.25,-18.21,0,*62
1521586993.14,14296,10.13,72262.0,-17.29,-18.25,-18.25,0,*65
1521586994.37,14297,10.13,72250.3,-17.29,-18.25,-18.25,0,*64
1521586995.6,14298,10.13,72242.8,-17.29,-18.25,-18.25,0,*6B
1521586996.84,14299,10.13,72236.0,-17.29,-18.25,-18.25,0,*6A
1521586998.07,14300,10.13,72238.5,-17.29,-18.25,-18.25,0,*6B
1521586999.33,14301,10.13,72258.8,-17.29,-18.35,-18.25,0,*6B
1521587000.56,14302,10.13,72262.3,-17.29,-18.25,-18.25,0,*69
1521587001.77,14303,10.13,72268.5,-17.31,-18.25,-18.25,0,*61
1521587003.0,14304,10.13,72262.0,-17.29,-18.25,-18.25,0,*6F
1521587004.24,14305,10.13,72262.5,-17.29,-18.25,-18.25,0,*6E
1521587005.47,14306,10.13,72260.8,-17.29,-18.25,-18.25,0,*6D
1521587006.68,14307,10.13,72256.5,-17.27,-18.21,-18.21,0,*62
1521587007.92,14308,10.13,72252.0,-17.29,-18.25,-18.25,0,*63
1521587009.15,14309,10.13,72248.8,-17.29,-18.25,-18.25,0,*62
1521587010.38,14310,10.13,72250.5,-17.29,-18.25,-18.25,0,*6A
1521587011.61,14311,10.13,72250.0,-17.29,-18.25,-18.25,0,*6B
1521587012.85,14312,10.13,72266.8,-17.29,-18.25,-18.25,0,*68
1521587014.08,14313,10.13,72256.3,-17.29,-18.25,-18.25,0,*69
1521587015.31,14314,10.13,72260.8,-17.29,-18.25,-18.25,0,*6E
1521587016.55,14315,10.13,72260.0,-17.29,-18.25,-18.25,0,*6F
1521587017.78,14316,10.13,72242.3,-17.29,-18.25,-18.21,0,*68
1521587019.02,14317,10.13,72246.3,-17.29,-18.25,-18.17,0,*6C
1521587020.26,14318,10.13,72256.3,-17.29,-18.25,-18.21,0,*66
1521587021.5,14319,10.13,72240.0,-17.29,-18.25,-18.21,0,*67
1521587022.73,14320,10.13,72266.8,-17.29,-18.25,-18.25,0,*69
1521587023.96,14321,10.13,72254.3,-17.29,-18.25,-18.25,0,*68
1521587025.2,14322,10.13,72254.3,-17.29,-18.21,-18.25,0,*6F
1521587026.43,14323,10.13,72258.0,-17.29,-18.21,-18.25,0,*6E
1521587027.64,14324,10.13,72256.0,-17.31,-18.21,-18.21,0,*64
1521587028.86,14325,10.13,72258.0,-17.31,-18.21,-18.21,0,*65
1521587030.1,14326,10.13,72252.8,-17.29,-18.21,-18.21,0,*6F
1521587031.33,14327,10.13,72246.0,-17.29,-18.25,-18.21,0,*6A
1521587032.57,14328,10.13,72252.0,-17.29,-18.25,-18.25,0,*61
1521587033.8,14329,10.13,72250.5,-17.29,-18.25,-18.25,0,*60
1521587035.01,14330,10.13,72250.0,-17.31,-18.25,-18.25,0,*61
1521587036.21,14331,10.13,72234.3,-17.31,-18.25,-18.25,0,*60
1521587037.42,14332,10.13,72246.5,-17.31,-18.25,-18.25,0,*63
1521587038.63,14333,10.13,72244.3,-17.31,-18.25,-18.25,0,*62
1521587039.86,14334,10.13,72230.5,-17.29,-18.25,-18.25,0,*6C
1521587041.07,14335,10.13,72236.3,-17.31,-18.25,-18.25,0,*64
1521587042.33,14336,10.13,72246.0,-17.33,-18.25,-18.31,0,*60
1521587043.57,14337,10.13,72250.8,-17.29,-18.21,-18.25,0,*6B
1521587044.8,14338,10.13,72246.8,-17.29,-18.21,-18.25,0,*64
1521587046.01,14339,10.13,72236.0,-17.31,-18.21,-18.25,0,*6C
1521587047.21,14340,10.13,72238.3,-17.31,-18.25,-18.25,0,*66
1521587048.45,14341,10.13,72244.3,-17.29,-18.25,-18.25,0,*6E
1521587049.68,14342,10.13,72230.3,-17.29,-18.25,-18.25,0,*6D
1521587050.91,14343,10.13,72236.5,-17.29,-18.25,-18.25,0,*6C
1521587052.12,14344,10.13,72228.8,-17.31,-18.25,-18.25,0,*62
1521587053.33,14345,10.13,72242.5,-17.31,-18.25,-18.25,0,*63
1521587054.53,14346,10.13,72232.0,-17.31,-18.25,-18.25,0,*60
1521587055.74,14347,10.13,72226.5,-17.31,-18.25,-18.25,0,*61
1521587056.95,14348,10.06,72238.3,-17.31,-18.25,-18.25,0,*6E
1521587058.18,14349,10.13,72230.3,-17.29,-18.25,-18.25,0,*66
1521587059.41,14350,10.13,72238.8,-17.29,-18.21,-18.25,0,*6A
1521587060.65,14351,10.13,72246.0,-17.29,-18.25,-18.25,0,*6F
1521587061.85,14352,10.13,72258.3,-17.31,-18.25,-18.25,0,*65
1521587063.06,14353,10.13,72246.0,-17.31,-18.25,-18.25,0,*64
1521587064.27,14354,10.13,72228.8,-17.31,-18.25,-18.25,0,*63
1521587065.47,14355,10.13,72218.5,-17.31,-18.25,-18.25,0,*62
1521587066.68,14356,10.13,72222.8,-17.31,-18.25,-18.25,0,*61
1521587067.89,14357,10.13,72234.3,-17.31,-18.25,-18.25,0,*60
1521587069.09,14358,10.13,72232.5,-17.31,-18.25,-18.25,0,*6F
1521587070.3,14359,10.13,72238.0,-17.31,-18.25,-18.25,0,*6E
1521587071.51,14360,10.13,72238.5,-17.31,-18.25,-18.25,0,*64
1521587072.71,14361,10.13,72242.3,-17.31,-18.21,-18.25,0,*61
1521587073.92,14362,10.13,72246.5,-17.31,-18.21,-18.25,0,*62
1521587075.13,14363,10.13,72248.3,-17.31,-18.21,-18.25,0,*63
1521587076.34,14364,10.13,72242.8,-17.31,-18.21,-18.25,0,*64
1521587077.54,14365,10.13,72252.5,-17.31,-18.21,-18.25,0,*65
1521587078.81,14366,10.13,72248.5,-17.33,-18.25,-18.31,0,*65
1521587080.02,14367,10.13,72248.8,-17.31,-18.21,-18.25,0,*67
1521587081.32,14368,10.13,72244.0,-17.33,-18.31,-18.31,0,*6E
1521587082.52,14369,10.13,72246.5,-17.31,-18.25,-18.25,0,*6D
1521587083.73,14370,10.13,72246.5,-17.31,-18.25,-18.25,0,*65
1521587084.94,14371,10.06,72246.3,-17.31,-18.25,-18.25,0,*64
1521587086.18,14372,10.13,72252.8,-17.29,-18.25,-18.21,0,*6A
1521587087.39,14373,10.13,72250.3,-17.31,-18.25,-18.21,0,*62
1521587088.6,14374,10.13,72250.5,-17.31,-18.25,-18.21,0,*65
1521587089.84,14375,10.13,72254.3,-17.29,-18.25,-18.21,0,*6D
1521587091.08,14376,10.13,72252.5,-17.29,-18.25,-18.21,0,*6E
1521587092.34,14377,10.13,72254.8,-17.33,-18.31,-18.25,0,*65
1521587093.55,14378,10.13,72244.8,-17.31,-18.25,-18.21,0,*69
1521587094.79,14379,10.13,72252.8,-17.29,-18.25,-18.21,0,*61
1521587096.0,14380,10.13,72256.3,-17.31,-18.25,-18.21,0,*6E
1521587097.22,14381,10.13,72252.3,-17.31,-18.25,-18.21,0,*6F
1521587098.48,14382,10.13,72252.5,-17.33,-18.31,-18.25,0,*6F
1521587099.69,14383,10.13,72250.8,-17.31,-18.25,-18.21,0,*6D
1521587100.9,14384,10.06,72250.8,-17.31,-18.25,-18.21,0,*6A
1521587102.12,14385,10.13,72238.5,-17.31,-18.25,-18.21,0,*6B
1521587103.33,14386,10.13,72238.3,-17.31,-18.25,-18.21,0,*68
1521587104.57,14387,10.13,72236.0,-17.29,-18.25,-18.21,0,*60
1521587105.78,14388,10.13,72242.5,-17.31,-18.25,-18.21,0,*66
1521587107.04,14389,10.13,72248.8,-17.33,-18.31,-18.25,0,*64
1521587108.3,14390,10.13,72244.5,-17.33,-18.31,-18.25,0,*6C
1521587109.54,14391,10.13,72254.8,-17.29,-18.25,-18.25,0,*63
1521587110.74,14392,10.06,72250.0,-17.31,-18.25,-18.25,0,*69
1521587112.04,14393,10.13,72248.5,-17.33,-18.31,-18.31,0,*6A
1521587113.25,14394,10.13,72256.3,-17.31,-18.25,-18.21,0,*6B
1521587114.51,14395,10.13,72256.8,-17.33,-18.31,-18.25,0,*69
1521587115.77,14396,10.13,72252.8,-17.33,-18.31,-18.25,0,*6A
1521587116.99,14397,10.13,72258.3,-17.31,-18.25,-18.21,0,*68
1521587118.23,14398,10.13,72252.0,-17.29,-18.25,-18.21,0,*6E
1521587119.44,14399,10.13,72254.5,-17.31,-18.25,-18.21,0,*66
1521587120.68,14400,10.13,72254.5,-17.29,-18.25,-18.21,0,*68
1521587121.91,14401,10.13,72244.0,-17.33,-18.41,-18.25,0,*64
1521587123.12,14402,10.13,72250.3,-17.31,-18.25,-18.21,0,*63
1521587124.37,14403,10.13,72250.5,-17.31,-18.31,-18.21,0,*67
1521587125.58,14404,10.13,72248.5,-17.31,-18.21,-18.25,0,*65
1521587126.87,14405,10.13,72246.0,-17.33,-18.31,-18.31,0,*62
1521587128.08,14406,10.13,72260.3,-17.31,-18.25,-18.25,0,*63
1521587129.29,14407,10.13,72256.0,-17.31,-18.25,-18.25,0,*62
1521587130.5,14408,10.13,72254.8,-17.31,-18.25,-18.25,0,*6D
1521587131.7,14409,10.13,72242.3,-17.31,-18.25,-18.25,0,*6C
1521587132.98,14410,10.13,72258.3,-17.31,-18.31,-18.31,0,*64
1521587134.18,14411,10.13,72254.5,-17.31,-18.25,-18.25,0,*65
1521587135.48,14412,10.13,72254.8,-17.33,-18.31,-18.31,0,*64
1521587136.78,14413,10.13,72252.8,-17.33,-18.31,-18.31,0,*65
1521587138.04,14414,10.13,72248.8,-17.33,-18.31,-18.25,0,*67
1521587139.25,14415,10.13,72250.3,-17.31,-18.25,-18.25,0,*61
1521587140.54,14416,10.13,72246.3,-17.33,-18.31,-18.31,0,*60
1521587141.84,14417,10.13,72254.0,-17.33,-18.31,-18.31,0,*61
1521587143.14,14418,10.13,72248.0,-17.33,-18.31,-18.31,0,*6E
1521587144.38,14419,10.13,72242.5,-17.31,-18.35,-18.25,0,*6C
1521587145.67,14420,10.13,72244.0,-17.33,-18.31,-18.31,0,*65
1521587146.92,14421,10.13,72248.5,-17.31,-18.31,-18.21,0,*67
1521587148.18,14422,10.13,72244.8,-17.33,-18.31,-18.25,0,*62
1521587149.39,14423,10.13,72244.3,-17.31,-18.25,-18.21,0,*60
1521587150.65,14424,10.13,72240.5,-17.33,-18.31,-18.25,0,*64
1521587151.87,14425,10.13,72254.0,-17.31,-18.25,-18.21,0,*66
1521587153.08,14426,10.13,72250.8,-17.31,-18.25,-18.21,0,*65
1521587154.29,14427,10.13,72246.5,-17.31,-18.25,-18.21,0,*64
1521587155.5,14428,10.13,72242.8,-17.31,-18.21,-18.21,0,*6F
1521587156.71,14429,10.13,72246.8,-17.31,-18.21,-18.25,0,*6A
1521587157.92,14430,10.13,72250.5,-17.31,-18.21,-18.25,0,*62
1521587159.19,14431,10.13,72240.5,-17.33,-18.25,-18.31,0,*60
1521587160.42,14432,10.13,72250.3,-17.33,-18.25,-18.25,0,*66
1521587161.63,14433,10.13,72250.8,-17.31,-18.25,-18.21,0,*61
1521587162.9,14434,10.13,72248.8,-17.33,-18.31,-18.21,0,*61
1521587164.16,14435,10.13,72246.5,-17.33,-18.31,-18.25,0,*64
1521587165.37,14436,10.13,72242.0,-17.31,-18.25,-18.21,0,*64
1521587166.58,14437,10.13,72242.5,-17.31,-18.25,-18.25,0,*61
1521587167.79,14438,10.13,72238.8,-17.31,-18.25,-18.21,0,*6A
1521587169.05,14439,10.13,72254.5,-17.33,-18.31,-18.25,0,*68
1521587170.35,14440,10.13,72252.8,-17.33,-18.31,-18.31,0,*63
1521587171.65,14441,10.13,72240.8,-17.33,-18.31,-18.31,0,*62
1521587172.89,14442,10.13,72246.0,-17.31,-18.25,-18.31,0,*66
1521587174.19,14443,10.13,72238.3,-17.33,-18.31,-18.31,0,*60
1521587175.49,14444,10.13,72238.3,-17.33,-18.31,-18.31,0,*67
1521587176.79,14445,10.13,72244.0,-17.33,-18.31,-18.31,0,*66
1521587178.09,14446,10.13,72238.8,-17.33,-18.31,-18.31,0,*65
1521587179.32,14447,10.13,72234.5,-17.31,-18.35,-18.25,0,*67
1521587180.62,14448,10.13,72232.5,-17.33,-18.31,-18.31,0,*6B
1521587181.92,14449,10.13,72238.0,-17.33,-18.31,-18.31,0,*6A
1521587183.21,14450,10.06,72242.8,-17.33,-18.31,-18.31,0,*62
1521587184.51,14451,10.13,72246.8,-17.33,-18.31,-18.31,0,*63
1521587185.81,14452,10.13,72248.8,-17.33,-18.31,-18.31,0,*60
1521587187.11,14453,10.13,72252.0,-17.33,-18.31,-18.31,0,*61
1521587188.41,14454,10.13,72254.8,-17.33,-18.31,-18.31,0,*66
1521587189.71,14455,10.06,72240.0,-17.33,-18.31,-18.31,0,*67
1521587190.91,14456,10.13,72252.0,-17.31,-18.25,-18.25,0,*66
1521587192.12,14457,10.13,72262.0,-17.31,-18.25,-18.25,0,*67
1521587193.42,14458,10.13,72256.8,-17.33,-18.31,-18.31,0,*6A
1521587194.71,14459,10.13,72242.5,-17.33,-18.31,-18.31,0,*6B
1521587196.01,14460,10.13,72240.8,-17.33,-18.31,-18.31,0,*61
1521587197.22,14461,10.06,72232.3,-17.31,-18.25,-18.25,0,*62
1521587198.45,14462,10.13,72252.5,-17.33,-18.41,-18.25,0,*61
1521587199.72,14463,10.13,72250.3,-17.33,-18.31,-18.25,0,*67
1521587201.01,14464,10.13,72250.0,-17.33,-18.31,-18.31,0,*65
1521587202.31,14465,10.06,72256.3,-17.33,-18.31,-18.31,0,*64
1521587203.61,14466,10.13,72250.0,-17.33,-18.31,-18.31,0,*67
1521587204.91,14467,10.13,72250.0,-17.33,-18.31,-18.31,0,*66
1521587206.21,14468,10.13,72254.3,-17.33,-18.31,-18.31,0,*69
1521587207.51,14469,10.13,72248.0,-17.33,-18.31,-18.31,0,*68
1521587208.8,14470,10.13,72258.0,-17.33,-18.31,-18.31,0,*60
1521587210.1,14471,10.13,72248.3,-17.33,-18.31,-18.31,0,*61
1521587211.4,14472,10.13,72246.0,-17.33,-18.31,-18.31,0,*62
1521587212.66,14473,10.13,72258.3,-17.33,-18.31,-18.25,0,*66
1521587213.92,14474,10.13,72258.8,-17.33,-18.31,-18.25,0,*61
1521587215.19,14475,10.13,72252.3,-17.33,-18.41,-18.31,0,*62
1521587216.49,14476,10.13,72248.0,-17.33,-18.31,-18.31,0,*66
1521587217.79,14477,10.13,72240.8,-17.33,-18.31,-18.31,0,*67
1521587219.09,14478,10.13,72242.8,-17.33,-18.31,-18.31,0,*68
1521587220.39,14479,10.13,72236.3,-17.33,-18.31,-18.31,0,*69
1521587221.68,14480,10.06,72236.5,-17.33,-18.31,-18.31,0,*6F
1521587222.89,14481,10.13,72242.0,-17.31,-18.25,-18.25,0,*6C
1521587224.15,14482,10.13,72244.0,-17.33,-18.31,-18.25,0,*68
1521587225.41,14483,10.13,72236.5,-17.33,-18.31,-18.25,0,*69
1521587226.67,14484,10.13,72250.5,-17.33,-18.31,-18.25,0,*6E
1521587227.94,14485,10.13,72250.3,-17.33,-18.31,-18.25,0,*6F
1521587229.2,14486,10.13,72258.8,-17.33,-18.31,-18.21,0,*68
1521587230.46,14487,10.13,72262.5,-17.33,-18.31,-18.25,0,*6D
1521587231.73,14488,10.13,72246.8,-17.33,-18.31,-18.21,0,*66
1521587232.99,14489,10.06,72246.8,-17.33,-18.31,-18.25,0,*63
1521587234.25,14490,10.13,72254.8,-17.33,-18.31,-18.25,0,*6B
1521587235.49,14491,10.06,72250.3,-17.35,-18.31,-18.25,0,*6C
1521587236.75,14492,10.13,72248.8,-17.33,-18.31,-18.25,0,*69
1521587238.02,14493,10.13,72248.3,-17.33,-18.31,-18.21,0,*6C
1521587239.29,14494,10.13,72254.3,-17.33,-18.31,-18.21,0,*6B
1521587240.49,14495,10.13,72256.3,-17.31,-18.25,-18.25,0,*69
1521587241.79,14496,10.06,72248.0,-17.33,-18.31,-18.31,0,*68
1521587243.09,14497,10.13,72254.5,-17.33,-18.31,-18.31,0,*69
1521587244.35,14498,10.13,72252.8,-17.33,-18.31,-18.25,0,*63
1521587245.61,14499,10.13,72252.0,-17.33,-18.31,-18.25,0,*62
1521587246.87,14500,10.13,72252.8,-17.33,-18.31,-18.25,0,*63
1521587248.13,14501,10.13,72250.0,-17.33,-18.31,-18.25,0,*62
1521587249.4,14502,10.13,72248.5,-17.33,-18.31,-18.25,0,*61
1521587250.66,14503,10.13,72252.5,-17.33,-18.31,-18.25,0,*60
1521587251.92,14504,10.13,72252.5,-17.33,-18.31,-18.25,0,*67
1521587253.16,14505,10.13,72252.8,-17.35,-18.31,-18.25,0,*60
1521587254.36,14506,10.06,72248.8,-17.35,-18.25,-18.25,0,*66
1521587255.57,14507,10.06,72246.0,-17.35,-18.25,-18.25,0,*67
1521587256.78,14508,10.13,72250.0,-17.35,-18.25,-18.25,0,*68
1521587257.99,14509,10.13,72240.3,-17.35,-18.25,-18.25,0,*69
1521587259.19,14510,10.13,72250.3,-17.35,-18.25,-18.25,0,*61
1521587260.43,14511,10.06,72254.3,-17.35,-18.31,-18.25,0,*65
1521587261.69,14512,10.06,72250.0,-17.33,-18.31,-18.25,0,*60
1521587262.95,14513,10.06,72246.0,-17.33,-18.31,-18.25,0,*61
1521587264.25,14514,10.06,72250.8,-17.33,-18.31,-18.31,0,*63
1521587265.51,14515,10.13,72248.3,-17.33,-18.31,-18.25,0,*67
1521587266.77,14516,10.13,72242.0,-17.33,-18.31,-18.25,0,*64
1521587268.03,14517,10.06,72220.8,-17.33,-18.31,-18.25,0,*65
1521587269.29,14518,10.13,72230.5,-17.33,-18.31,-18.25,0,*6A
1521587270.56,14519,10.13,72232.8,-17.33,-18.31,-18.25,0,*6B
1521587271.82,14520,10.13,72250.5,-17.33,-18.31,-18.25,0,*61
1521587273.08,14521,10.13,72244.5,-17.33,-18.31,-18.25,0,*60
1521587274.34,14522,10.13,72242.5,-17.33,-18.31,-18.25,0,*63
1521587275.58,14523,10.13,72252.3,-17.35,-18.31,-18.25,0,*64
1521587276.82,14524,10.06,72244.5,-17.35,-18.31,-18.25,0,*63
1521587278.06,14525,10.13,72236.8,-17.35,-18.25,-18.31,0,*62
1521587279.3,14526,10.06,72236.8,-17.35,-18.31,-18.25,0,*61
1521587280.54,14527,10.13,72236.0,-17.35,-18.31,-18.25,0,*60
1521587281.77,14528,10.13,72244.8,-17.35,-18.31,-18.25,0,*6F
1521587283.03,14529,10.13,72244.3,-17.33,-18.31,-18.25,0,*68
1521587284.29,14530,10.06,72244.8,-17.33,-18.31,-18.25,0,*60
1521587285.53,14531,10.13,72242.5,-17.35,-18.31,-18.25,0,*67
1521587286.79,14532,10.13,72230.0,-17.33,-18.31,-18.25,0,*62